Year,Month,Day,Hour,Minute,Value (Times are PST for temperature in C)
2017,06,24,00,00,18.40
2017,06,24,00,01,18.30
2017,06,24,00,02,18.20
2017,06,24,00,03,18.20
2017,06,24,00,04,18.20
2017,06,24,00,05,18.30
2017,06,24,00,06,18.30
2017,06,24,00,07,18.30
2017,06,24,00,08,18.40
2017,06,24,00,09,18.50
2017,06,24,00,10,18.50
2017,06,24,00,11,18.60
2017,06,24,00,12,18.60
2017,06,24,00,13,18.60
2017,06,24,00,14,18.70
2017,06,24,00,15,18.70
2017,06,24,00,16,18.70
2017,06,24,00,17,18.70
2017,06,24,00,18,18.70
2017,06,24,00,19,18.70
2017,06,24,00,20,18.70
2017,06,24,00,21,18.70
2017,06,24,00,22,18.70
2017,06,24,00,23,18.70
2017,06,24,00,24,18.70
2017,06,24,00,25,18.70
2017,06,24,00,26,18.70
2017,06,24,00,27,18.70
2017,06,24,00,28,18.60
2017,06,24,00,29,18.60
2017,06,24,00,30,18.50
2017,06,24,00,31,18.40
2017,06,24,00,32,18.40
2017,06,24,00,33,18.40
2017,06,24,00,34,18.40
2017,06,24,00,35,18.30
2017,06,24,00,36,18.30
2017,06,24,00,37,18.20
2017,06,24,00,38,18.00
2017,06,24,00,39,17.90
2017,06,24,00,40,17.80
2017,06,24,00,41,17.60
2017,06,24,00,42,17.50
2017,06,24,00,43,17.40
2017,06,24,00,44,17.20
2017,06,24,00,45,17.10
2017,06,24,00,46,17.00
2017,06,24,00,47,17.00
2017,06,24,00,48,16.90
2017,06,24,00,49,16.80
2017,06,24,00,50,16.70
2017,06,24,00,51,16.70
2017,06,24,00,52,16.60
2017,06,24,00,53,16.50
2017,06,24,00,54,16.50
2017,06,24,00,55,16.40
2017,06,24,00,56,16.40
2017,06,24,00,57,16.30
2017,06,24,00,58,16.20
2017,06,24,00,59,16.20
2017,06,24,01,00,16.20
2017,06,24,01,01,16.10
2017,06,24,01,02,16.10
2017,06,24,01,03,16.10
2017,06,24,01,04,16.10
2017,06,24,01,05,16.10
2017,06,24,01,06,16.20
2017,06,24,01,07,16.20
2017,06,24,01,08,16.30
2017,06,24,01,09,16.30
2017,06,24,01,10,16.30
2017,06,24,01,11,16.30
2017,06,24,01,12,16.40
2017,06,24,01,13,16.60
2017,06,24,01,14,16.80
2017,06,24,01,15,16.90
2017,06,24,01,16,16.90
2017,06,24,01,17,17.00
2017,06,24,01,18,17.00
2017,06,24,01,19,17.10
2017,06,24,01,20,17.50
2017,06,24,01,21,17.80
2017,06,24,01,22,18.10
2017,06,24,01,23,18.30
2017,06,24,01,24,18.40
2017,06,24,01,25,18.50
2017,06,24,01,26,18.60
2017,06,24,01,27,18.80
2017,06,24,01,28,19.10
2017,06,24,01,29,19.20
2017,06,24,01,30,19.30
2017,06,24,01,31,19.50
2017,06,24,01,32,19.70
2017,06,24,01,33,19.80
2017,06,24,01,34,20.00
2017,06,24,01,35,20.10
2017,06,24,01,36,20.10
2017,06,24,01,37,20.20
2017,06,24,01,38,20.20
2017,06,24,01,39,20.20
2017,06,24,01,40,20.20
2017,06,24,01,41,20.20
2017,06,24,01,42,20.20
2017,06,24,01,43,20.10
2017,06,24,01,44,20.10
2017,06,24,01,45,20.00
2017,06,24,01,46,19.90
2017,06,24,01,47,19.80
2017,06,24,01,48,19.80
2017,06,24,01,49,19.70
2017,06,24,01,50,19.60
2017,06,24,01,51,19.50
2017,06,24,01,52,19.40
2017,06,24,01,53,19.30
2017,06,24,01,54,19.20
2017,06,24,01,55,19.10
2017,06,24,01,56,19.00
2017,06,24,01,57,18.90
2017,06,24,01,58,18.80
2017,06,24,01,59,18.80
2017,06,24,02,00,18.80
2017,06,24,02,01,18.90
2017,06,24,02,02,18.90
2017,06,24,02,03,19.00
2017,06,24,02,04,19.10
2017,06,24,02,05,19.20
2017,06,24,02,06,19.20
2017,06,24,02,07,19.30
2017,06,24,02,08,19.30
2017,06,24,02,09,19.30
2017,06,24,02,10,19.40
2017,06,24,02,11,19.40
2017,06,24,02,12,19.50
2017,06,24,02,13,19.50
2017,06,24,02,14,19.50
2017,06,24,02,15,19.60
2017,06,24,02,16,19.60
2017,06,24,02,17,19.60
2017,06,24,02,18,19.60
2017,06,24,02,19,19.50
2017,06,24,02,20,19.40
2017,06,24,02,21,19.20
2017,06,24,02,22,19.00
2017,06,24,02,23,18.80
2017,06,24,02,24,18.50
2017,06,24,02,25,18.20
2017,06,24,02,26,17.90
2017,06,24,02,27,17.70
2017,06,24,02,28,17.40
2017,06,24,02,29,17.10
2017,06,24,02,30,16.90
2017,06,24,02,31,16.60
2017,06,24,02,32,16.30
2017,06,24,02,33,16.10
2017,06,24,02,34,15.90
2017,06,24,02,35,15.80
2017,06,24,02,36,15.60
2017,06,24,02,37,15.40
2017,06,24,02,38,15.30
2017,06,24,02,39,15.10
2017,06,24,02,40,14.90
2017,06,24,02,41,14.80
2017,06,24,02,42,14.70
2017,06,24,02,43,14.60
2017,06,24,02,44,14.50
2017,06,24,02,45,14.40
2017,06,24,02,46,14.30
2017,06,24,02,47,14.30
2017,06,24,02,48,14.20
2017,06,24,02,49,14.10
2017,06,24,02,50,14.10
2017,06,24,02,51,14.00
2017,06,24,02,52,14.00
2017,06,24,02,53,14.00
2017,06,24,02,54,14.00
2017,06,24,02,55,14.00
2017,06,24,02,56,14.00
2017,06,24,02,57,14.00
2017,06,24,02,58,14.00
2017,06,24,02,59,14.00
2017,06,24,03,00,14.10
2017,06,24,03,01,14.20
2017,06,24,03,02,14.50
2017,06,24,03,03,14.80
2017,06,24,03,04,15.10
2017,06,24,03,05,15.30
2017,06,24,03,06,15.60
2017,06,24,03,07,15.80
2017,06,24,03,08,16.00
2017,06,24,03,09,16.30
2017,06,24,03,10,16.40
2017,06,24,03,11,16.60
2017,06,24,03,12,16.70
2017,06,24,03,13,16.70
2017,06,24,03,14,16.70
2017,06,24,03,15,16.60
2017,06,24,03,16,16.50
2017,06,24,03,17,16.40
2017,06,24,03,18,16.30
2017,06,24,03,19,16.20
2017,06,24,03,20,16.00
2017,06,24,03,21,15.80
2017,06,24,03,22,15.60
2017,06,24,03,23,15.50
2017,06,24,03,24,15.30
2017,06,24,03,25,15.20
2017,06,24,03,26,15.20
2017,06,24,03,27,15.10
2017,06,24,03,28,15.00
2017,06,24,03,29,15.00
2017,06,24,03,30,14.90
2017,06,24,03,31,14.80
2017,06,24,03,32,14.70
2017,06,24,03,33,14.70
2017,06,24,03,34,14.60
2017,06,24,03,35,14.50
2017,06,24,03,36,14.40
2017,06,24,03,37,14.30
2017,06,24,03,38,14.20
2017,06,24,03,39,14.10
2017,06,24,03,40,14.00
2017,06,24,03,41,13.90
2017,06,24,03,42,13.80
2017,06,24,03,43,13.70
2017,06,24,03,44,13.60
2017,06,24,03,45,13.50
2017,06,24,03,46,13.50
2017,06,24,03,47,13.40
2017,06,24,03,48,13.30
2017,06,24,03,49,13.30
2017,06,24,03,50,13.20
2017,06,24,03,51,13.20
2017,06,24,03,52,13.20
2017,06,24,03,53,13.20
2017,06,24,03,54,13.20
2017,06,24,03,55,13.20
2017,06,24,03,56,13.20
2017,06,24,03,57,13.30
2017,06,24,03,58,13.30
2017,06,24,03,59,13.40
2017,06,24,04,00,13.50
2017,06,24,04,01,13.60
2017,06,24,04,02,13.60
2017,06,24,04,03,13.60
2017,06,24,04,04,13.60
2017,06,24,04,05,13.60
2017,06,24,04,06,13.50
2017,06,24,04,07,13.50
2017,06,24,04,08,13.50
2017,06,24,04,09,13.50
2017,06,24,04,10,13.50
2017,06,24,04,11,13.60
2017,06,24,04,12,13.60
2017,06,24,04,13,13.70
2017,06,24,04,14,13.70
2017,06,24,04,15,13.80
2017,06,24,04,16,13.90
2017,06,24,04,17,14.10
2017,06,24,04,18,14.20
2017,06,24,04,19,14.30
2017,06,24,04,20,14.30
2017,06,24,04,21,14.40
2017,06,24,04,22,14.40
2017,06,24,04,23,14.50
2017,06,24,04,24,14.60
2017,06,24,04,25,14.60
2017,06,24,04,26,14.50
2017,06,24,04,27,14.50
2017,06,24,04,28,14.40
2017,06,24,04,29,14.40
2017,06,24,04,30,14.40
2017,06,24,04,31,14.40
2017,06,24,04,32,14.40
2017,06,24,04,33,14.50
2017,06,24,04,34,14.50
2017,06,24,04,35,14.50
2017,06,24,04,36,14.50
2017,06,24,04,37,14.50
2017,06,24,04,38,14.50
2017,06,24,04,39,14.60
2017,06,24,04,40,14.70
2017,06,24,04,41,14.70
2017,06,24,04,42,14.70
2017,06,24,04,43,14.70
2017,06,24,04,44,14.60
2017,06,24,04,45,14.60
2017,06,24,04,46,14.50
2017,06,24,04,47,14.50
2017,06,24,04,48,14.40
2017,06,24,04,49,14.30
2017,06,24,04,50,14.20
2017,06,24,04,51,14.20
2017,06,24,04,52,14.00
2017,06,24,04,53,14.00
2017,06,24,04,54,13.90
2017,06,24,04,55,13.80
2017,06,24,04,56,13.70
2017,06,24,04,57,13.60
2017,06,24,04,58,13.50
2017,06,24,04,59,13.40
2017,06,24,05,00,13.30
2017,06,24,05,01,13.30
2017,06,24,05,02,13.20
2017,06,24,05,03,13.20
2017,06,24,05,04,13.30
2017,06,24,05,05,13.50
2017,06,24,05,06,13.60
2017,06,24,05,07,13.70
2017,06,24,05,08,13.80
2017,06,24,05,09,13.80
2017,06,24,05,10,13.80
2017,06,24,05,11,13.80
2017,06,24,05,12,13.70
2017,06,24,05,13,13.70
2017,06,24,05,14,13.80
2017,06,24,05,15,13.80
2017,06,24,05,16,13.70
2017,06,24,05,17,13.80
2017,06,24,05,18,13.80
2017,06,24,05,19,13.80
2017,06,24,05,20,13.80
2017,06,24,05,21,13.90
2017,06,24,05,22,13.90
2017,06,24,05,23,13.90
2017,06,24,05,24,13.90
2017,06,24,05,25,14.00
2017,06,24,05,26,14.00
2017,06,24,05,27,14.10
2017,06,24,05,28,14.10
2017,06,24,05,29,14.10
2017,06,24,05,30,14.10
2017,06,24,05,31,14.10
2017,06,24,05,32,14.10
2017,06,24,05,33,14.10
2017,06,24,05,34,14.10
2017,06,24,05,35,14.10
2017,06,24,05,36,14.10
2017,06,24,05,37,14.10
2017,06,24,05,38,14.10
2017,06,24,05,39,14.10
2017,06,24,05,40,14.00
2017,06,24,05,41,13.90
2017,06,24,05,42,13.90
2017,06,24,05,43,13.80
2017,06,24,05,44,13.70
2017,06,24,05,45,13.70
2017,06,24,05,46,13.60
2017,06,24,05,47,13.60
2017,06,24,05,48,13.50
2017,06,24,05,49,13.50
2017,06,24,05,50,13.40
2017,06,24,05,51,13.40
2017,06,24,05,52,13.30
2017,06,24,05,53,13.30
2017,06,24,05,54,13.30
2017,06,24,05,55,13.30
2017,06,24,05,56,13.20
2017,06,24,05,57,13.20
2017,06,24,05,58,13.20
2017,06,24,05,59,13.20
2017,06,24,06,00,13.20
2017,06,24,06,01,13.10
2017,06,24,06,02,13.10
2017,06,24,06,03,13.10
2017,06,24,06,04,13.20
2017,06,24,06,05,13.30
2017,06,24,06,06,13.50
2017,06,24,06,07,13.70
2017,06,24,06,08,13.80
2017,06,24,06,09,14.00
2017,06,24,06,10,14.00
2017,06,24,06,11,14.10
2017,06,24,06,12,14.10
2017,06,24,06,13,14.10
2017,06,24,06,14,14.10
2017,06,24,06,15,14.10
2017,06,24,06,16,14.10
2017,06,24,06,17,14.10
2017,06,24,06,18,14.10
2017,06,24,06,19,14.10
2017,06,24,06,20,14.20
2017,06,24,06,21,14.20
2017,06,24,06,22,14.30
2017,06,24,06,23,14.40
2017,06,24,06,24,14.70
2017,06,24,06,25,14.90
2017,06,24,06,26,15.30
2017,06,24,06,27,15.50
2017,06,24,06,28,15.70
2017,06,24,06,29,15.90
2017,06,24,06,30,16.10
2017,06,24,06,31,16.20
2017,06,24,06,32,16.30
2017,06,24,06,33,16.30
2017,06,24,06,34,16.30
2017,06,24,06,35,16.40
2017,06,24,06,36,16.40
2017,06,24,06,37,16.40
2017,06,24,06,38,16.40
2017,06,24,06,39,16.40
2017,06,24,06,40,16.40
2017,06,24,06,41,16.30
2017,06,24,06,42,16.20
2017,06,24,06,43,16.20
2017,06,24,06,44,16.20
2017,06,24,06,45,16.20
2017,06,24,06,46,16.20
2017,06,24,06,47,16.20
2017,06,24,06,48,16.20
2017,06,24,06,49,16.20
2017,06,24,06,50,16.20
2017,06,24,06,51,16.30
2017,06,24,06,52,16.30
2017,06,24,06,53,16.30
2017,06,24,06,54,16.40
2017,06,24,06,55,16.50
2017,06,24,06,56,16.50
2017,06,24,06,57,16.60
2017,06,24,06,58,16.70
2017,06,24,06,59,16.80
2017,06,24,07,00,16.90
2017,06,24,07,01,17.00
2017,06,24,07,02,17.10
2017,06,24,07,03,17.20
2017,06,24,07,04,17.20
2017,06,24,07,05,17.30
2017,06,24,07,06,17.40
2017,06,24,07,07,17.60
2017,06,24,07,08,17.70
2017,06,24,07,09,17.90
2017,06,24,07,10,18.00
2017,06,24,07,11,18.20
2017,06,24,07,12,18.30
2017,06,24,07,13,18.40
2017,06,24,07,14,18.50
2017,06,24,07,15,18.60
2017,06,24,07,16,18.70
2017,06,24,07,17,18.80
2017,06,24,07,18,18.80
2017,06,24,07,19,18.90
2017,06,24,07,20,18.90
2017,06,24,07,21,19.00
2017,06,24,07,22,19.00
2017,06,24,07,23,19.10
2017,06,24,07,24,19.20
2017,06,24,07,25,19.20
2017,06,24,07,26,19.30
2017,06,24,07,27,19.30
2017,06,24,07,28,19.40
2017,06,24,07,29,19.40
2017,06,24,07,30,19.40
2017,06,24,07,31,19.40
2017,06,24,07,32,19.40
2017,06,24,07,33,19.50
2017,06,24,07,34,19.50
2017,06,24,07,35,19.60
2017,06,24,07,36,19.60
2017,06,24,07,37,19.60
2017,06,24,07,38,19.70
2017,06,24,07,39,19.70
2017,06,24,07,40,19.80
2017,06,24,07,41,19.80
2017,06,24,07,42,19.90
2017,06,24,07,43,19.90
2017,06,24,07,44,19.90
2017,06,24,07,45,19.90
2017,06,24,07,46,20.00
2017,06,24,07,47,20.00
2017,06,24,07,48,20.10
2017,06,24,07,49,20.10
2017,06,24,07,50,20.10
2017,06,24,07,51,20.20
2017,06,24,07,52,20.20
2017,06,24,07,53,20.20
2017,06,24,07,54,20.20
2017,06,24,07,55,20.30
2017,06,24,07,56,20.30
2017,06,24,07,57,20.30
2017,06,24,07,58,20.30
2017,06,24,07,59,20.30
2017,06,24,08,00,20.30
2017,06,24,08,01,20.30
2017,06,24,08,02,20.30
2017,06,24,08,03,20.30
2017,06,24,08,04,20.30
2017,06,24,08,05,20.40
2017,06,24,08,06,20.30
2017,06,24,08,07,20.40
2017,06,24,08,08,20.40
2017,06,24,08,09,20.40
2017,06,24,08,10,20.40
2017,06,24,08,11,20.40
2017,06,24,08,12,20.30
2017,06,24,08,13,20.40
2017,06,24,08,14,20.40
2017,06,24,08,15,20.40
2017,06,24,08,16,20.50
2017,06,24,08,17,20.50
2017,06,24,08,18,20.60
2017,06,24,08,19,20.60
2017,06,24,08,20,20.60
2017,06,24,08,21,20.60
2017,06,24,08,22,20.60
2017,06,24,08,23,20.60
2017,06,24,08,24,20.50
2017,06,24,08,25,20.60
2017,06,24,08,26,20.60
2017,06,24,08,27,20.50
2017,06,24,08,28,20.50
2017,06,24,08,29,20.50
2017,06,24,08,30,20.50
2017,06,24,08,31,20.50
2017,06,24,08,32,20.40
2017,06,24,08,33,20.30
2017,06,24,08,34,20.20
2017,06,24,08,35,20.10
2017,06,24,08,36,20.10
2017,06,24,08,37,20.10
2017,06,24,08,38,20.10
2017,06,24,08,39,20.20
2017,06,24,08,40,20.20
2017,06,24,08,41,20.20
2017,06,24,08,42,20.30
2017,06,24,08,43,20.30
2017,06,24,08,44,20.30
2017,06,24,08,45,20.30
2017,06,24,08,46,20.30
2017,06,24,08,47,20.20
2017,06,24,08,48,20.20
2017,06,24,08,49,20.20
2017,06,24,08,50,20.20
2017,06,24,08,51,20.30
2017,06,24,08,52,20.30
2017,06,24,08,53,20.40
2017,06,24,08,54,20.40
2017,06,24,08,55,20.50
2017,06,24,08,56,20.50
2017,06,24,08,57,20.40
2017,06,24,08,58,20.40
2017,06,24,08,59,20.40
2017,06,24,09,00,20.40
2017,06,24,09,01,20.40
2017,06,24,09,02,20.40
2017,06,24,09,03,20.30
2017,06,24,09,04,20.30
2017,06,24,09,05,20.30
2017,06,24,09,06,20.30
2017,06,24,09,07,20.30
2017,06,24,09,08,20.30
2017,06,24,09,09,20.40
2017,06,24,09,10,20.30
2017,06,24,09,11,20.30
2017,06,24,09,12,20.40
2017,06,24,09,13,20.40
2017,06,24,09,14,20.50
2017,06,24,09,15,20.50
2017,06,24,09,16,20.60
2017,06,24,09,17,20.70
2017,06,24,09,18,20.80
2017,06,24,09,19,20.80
2017,06,24,09,20,20.80
2017,06,24,09,21,20.70
2017,06,24,09,22,20.70
2017,06,24,09,23,20.70
2017,06,24,09,24,20.70
2017,06,24,09,25,20.70
2017,06,24,09,26,20.80
2017,06,24,09,27,20.80
2017,06,24,09,28,20.80
2017,06,24,09,29,20.90
2017,06,24,09,30,20.80
2017,06,24,09,31,20.90
2017,06,24,09,32,20.80
2017,06,24,09,33,20.80
2017,06,24,09,34,20.80
2017,06,24,09,35,20.80
2017,06,24,09,36,20.80
2017,06,24,09,37,20.80
2017,06,24,09,38,20.80
2017,06,24,09,39,20.80
2017,06,24,09,40,20.70
2017,06,24,09,41,20.70
2017,06,24,09,42,20.70
2017,06,24,09,43,20.70
2017,06,24,09,44,20.60
2017,06,24,09,45,20.60
2017,06,24,09,46,20.50
2017,06,24,09,47,20.40
2017,06,24,09,48,20.40
2017,06,24,09,49,20.30
2017,06,24,09,50,20.30
2017,06,24,09,51,20.30
2017,06,24,09,52,20.30
2017,06,24,09,53,20.30
2017,06,24,09,54,20.20
2017,06,24,09,55,20.20
2017,06,24,09,56,20.10
2017,06,24,09,57,20.00
2017,06,24,09,58,19.90
2017,06,24,09,59,19.80
2017,06,24,10,00,19.70
2017,06,24,10,01,19.50
2017,06,24,10,02,19.40
2017,06,24,10,03,19.30
2017,06,24,10,04,19.30
2017,06,24,10,05,19.20
2017,06,24,10,06,19.20
2017,06,24,10,07,19.10
2017,06,24,10,08,19.00
2017,06,24,10,09,18.90
2017,06,24,10,10,18.80
2017,06,24,10,11,18.90
2017,06,24,10,12,18.90
2017,06,24,10,13,19.00
2017,06,24,10,14,19.00
2017,06,24,10,15,18.90
2017,06,24,10,16,18.90
2017,06,24,10,17,18.90
2017,06,24,10,18,18.90
2017,06,24,10,19,18.90
2017,06,24,10,20,18.90
2017,06,24,10,21,19.00
2017,06,24,10,22,19.00
2017,06,24,10,23,19.10
2017,06,24,10,24,19.10
2017,06,24,10,25,19.10
2017,06,24,10,26,19.10
2017,06,24,10,27,19.10
2017,06,24,10,28,19.20
2017,06,24,10,29,19.20
2017,06,24,10,30,19.20
2017,06,24,10,31,19.20
2017,06,24,10,32,19.20
2017,06,24,10,33,19.10
2017,06,24,10,34,19.10
2017,06,24,10,35,19.10
2017,06,24,10,36,19.20
2017,06,24,10,37,19.20
2017,06,24,10,38,19.30
2017,06,24,10,39,19.30
2017,06,24,10,40,19.30
2017,06,24,10,41,19.40
2017,06,24,10,42,19.40
2017,06,24,10,43,19.40
2017,06,24,10,44,19.50
2017,06,24,10,45,19.50
2017,06,24,10,46,19.60
2017,06,24,10,47,19.60
2017,06,24,10,48,19.70
2017,06,24,10,49,19.70
2017,06,24,10,50,19.70
2017,06,24,10,51,19.80
2017,06,24,10,52,19.80
2017,06,24,10,53,19.90
2017,06,24,10,54,20.00
2017,06,24,10,55,20.00
2017,06,24,10,56,20.00
2017,06,24,10,57,20.00
2017,06,24,10,58,19.90
2017,06,24,10,59,19.90
2017,06,24,11,00,19.90
2017,06,24,11,01,19.90
2017,06,24,11,02,20.00
2017,06,24,11,03,20.10
2017,06,24,11,04,20.10
2017,06,24,11,05,20.10
2017,06,24,11,06,20.10
2017,06,24,11,07,20.20
2017,06,24,11,08,20.20
2017,06,24,11,09,20.20
2017,06,24,11,10,20.20
2017,06,24,11,11,20.30
2017,06,24,11,12,20.40
2017,06,24,11,13,20.50
2017,06,24,11,14,20.60
2017,06,24,11,15,20.60
2017,06,24,11,16,20.70
2017,06,24,11,17,20.70
2017,06,24,11,18,20.60
2017,06,24,11,19,20.50
2017,06,24,11,20,20.40
2017,06,24,11,21,20.40
2017,06,24,11,22,20.40
2017,06,24,11,23,20.40
2017,06,24,11,24,20.40
2017,06,24,11,25,20.40
2017,06,24,11,26,20.50
2017,06,24,11,27,20.50
2017,06,24,11,28,20.40
2017,06,24,11,29,20.40
2017,06,24,11,30,20.40
2017,06,24,11,31,20.50
2017,06,24,11,32,20.50
2017,06,24,11,33,20.60
2017,06,24,11,34,20.60
2017,06,24,11,35,20.70
2017,06,24,11,36,20.70
2017,06,24,11,37,20.70
2017,06,24,11,38,20.60
2017,06,24,11,39,20.60
2017,06,24,11,40,20.60
2017,06,24,11,41,20.60
2017,06,24,11,42,20.60
2017,06,24,11,43,20.60
2017,06,24,11,44,20.60
2017,06,24,11,45,20.60
2017,06,24,11,46,20.60
2017,06,24,11,47,20.60
2017,06,24,11,48,20.70
2017,06,24,11,49,20.80
2017,06,24,11,50,20.80
2017,06,24,11,51,20.80
2017,06,24,11,52,20.70
2017,06,24,11,53,20.70
2017,06,24,11,54,20.60
2017,06,24,11,55,20.50
2017,06,24,11,56,20.50
2017,06,24,11,57,20.40
2017,06,24,11,58,20.40
2017,06,24,11,59,20.40
2017,06,24,12,00,20.30
2017,06,24,12,01,20.30
2017,06,24,12,02,20.30
2017,06,24,12,03,20.30
2017,06,24,12,04,20.30
2017,06,24,12,05,20.40
2017,06,24,12,06,20.40
2017,06,24,12,07,20.40
2017,06,24,12,08,20.50
2017,06,24,12,09,20.60
2017,06,24,12,10,20.60
2017,06,24,12,11,20.70
2017,06,24,12,12,20.70
2017,06,24,12,13,20.70
2017,06,24,12,14,20.70
2017,06,24,12,15,20.70
2017,06,24,12,16,20.80
2017,06,24,12,17,20.80
2017,06,24,12,18,20.80
2017,06,24,12,19,20.90
2017,06,24,12,20,21.00
2017,06,24,12,21,21.10
2017,06,24,12,22,21.20
2017,06,24,12,23,21.30
2017,06,24,12,24,21.30
2017,06,24,12,25,21.30
2017,06,24,12,26,21.40
2017,06,24,12,27,21.50
2017,06,24,12,28,21.50
2017,06,24,12,29,21.50
2017,06,24,12,30,21.50
2017,06,24,12,31,21.50
2017,06,24,12,32,21.40
2017,06,24,12,33,21.40
2017,06,24,12,34,21.40
2017,06,24,12,35,21.30
2017,06,24,12,36,21.30
2017,06,24,12,37,21.40
2017,06,24,12,38,21.50
2017,06,24,12,39,21.60
2017,06,24,12,40,21.70
2017,06,24,12,41,21.70
2017,06,24,12,42,21.70
2017,06,24,12,43,21.70
2017,06,24,12,44,21.70
2017,06,24,12,45,21.70
2017,06,24,12,46,21.80
2017,06,24,12,47,21.80
2017,06,24,12,48,21.80
2017,06,24,12,49,21.80
2017,06,24,12,50,21.80
2017,06,24,12,51,21.80
2017,06,24,12,52,21.80
2017,06,24,12,53,21.80
2017,06,24,12,54,21.80
2017,06,24,12,55,21.90
2017,06,24,12,56,21.90
2017,06,24,12,57,22.00
2017,06,24,12,58,22.10
2017,06,24,12,59,22.20
2017,06,24,13,00,22.30
2017,06,24,13,01,22.40
2017,06,24,13,02,22.40
2017,06,24,13,03,22.60
2017,06,24,13,04,22.70
2017,06,24,13,05,22.80
2017,06,24,13,06,22.90
2017,06,24,13,07,22.90
2017,06,24,13,08,22.90
2017,06,24,13,09,23.00
2017,06,24,13,10,23.00
2017,06,24,13,11,23.00
2017,06,24,13,12,23.10
2017,06,24,13,13,23.20
2017,06,24,13,14,23.30
2017,06,24,13,15,23.30
2017,06,24,13,16,23.50
2017,06,24,13,17,23.60
2017,06,24,13,18,23.70
2017,06,24,13,19,23.70
2017,06,24,13,20,23.80
2017,06,24,13,21,23.80
2017,06,24,13,22,23.80
2017,06,24,13,23,23.70
2017,06,24,13,24,23.60
2017,06,24,13,25,23.60
2017,06,24,13,26,23.60
2017,06,24,13,27,23.60
2017,06,24,13,28,23.60
2017,06,24,13,29,23.60
2017,06,24,13,30,23.70
2017,06,24,13,31,23.70
2017,06,24,13,32,23.60
2017,06,24,13,33,23.60
2017,06,24,13,34,23.50
2017,06,24,13,35,23.50
2017,06,24,13,36,23.40
2017,06,24,13,37,23.40
2017,06,24,13,38,23.30
2017,06,24,13,39,23.20
2017,06,24,13,40,23.20
2017,06,24,13,41,23.20
2017,06,24,13,42,23.20
2017,06,24,13,43,23.20
2017,06,24,13,44,23.20
2017,06,24,13,45,23.20
2017,06,24,13,46,23.10
2017,06,24,13,47,23.10
2017,06,24,13,48,23.00
2017,06,24,13,49,22.90
2017,06,24,13,50,22.80
2017,06,24,13,51,22.80
2017,06,24,13,52,22.80
2017,06,24,13,53,22.90
2017,06,24,13,54,22.90
2017,06,24,13,55,22.90
2017,06,24,13,56,22.80
2017,06,24,13,57,22.70
2017,06,24,13,58,22.60
2017,06,24,13,59,22.60
2017,06,24,14,00,22.50
2017,06,24,14,01,22.50
2017,06,24,14,02,22.40
2017,06,24,14,03,22.20
2017,06,24,14,04,22.10
2017,06,24,14,05,22.00
2017,06,24,14,06,21.90
2017,06,24,14,07,21.80
2017,06,24,14,08,21.80
2017,06,24,14,09,21.80
2017,06,24,14,10,21.90
2017,06,24,14,11,22.00
2017,06,24,14,12,22.10
2017,06,24,14,13,22.10
2017,06,24,14,14,22.10
2017,06,24,14,15,22.20
2017,06,24,14,16,22.20
2017,06,24,14,17,22.30
2017,06,24,14,18,22.40
2017,06,24,14,19,22.50
2017,06,24,14,20,22.60
2017,06,24,14,21,22.80
2017,06,24,14,22,22.90
2017,06,24,14,23,23.00
2017,06,24,14,24,23.10
2017,06,24,14,25,23.10
2017,06,24,14,26,23.10
2017,06,24,14,27,23.10
2017,06,24,14,28,23.20
2017,06,24,14,29,23.20
2017,06,24,14,30,23.30
2017,06,24,14,31,23.40
2017,06,24,14,32,23.50
2017,06,24,14,33,23.60
2017,06,24,14,34,23.80
2017,06,24,14,35,23.90
2017,06,24,14,36,23.90
2017,06,24,14,37,24.00
2017,06,24,14,38,24.00
2017,06,24,14,39,24.10
2017,06,24,14,40,24.10
2017,06,24,14,41,24.20
2017,06,24,14,42,24.30
2017,06,24,14,43,24.30
2017,06,24,14,44,24.30
2017,06,24,14,45,24.30
2017,06,24,14,46,24.40
2017,06,24,14,47,24.50
2017,06,24,14,48,24.60
2017,06,24,14,49,24.70
2017,06,24,14,50,24.80
2017,06,24,14,51,24.80
2017,06,24,14,52,24.80
2017,06,24,14,53,24.80
2017,06,24,14,54,24.90
2017,06,24,14,55,24.90
2017,06,24,14,56,25.00
2017,06,24,14,57,25.10
2017,06,24,14,58,25.20
2017,06,24,14,59,25.30
2017,06,24,15,00,25.30
2017,06,24,15,01,25.30
2017,06,24,15,02,25.30
2017,06,24,15,03,25.30
2017,06,24,15,04,25.30
2017,06,24,15,05,25.40
2017,06,24,15,06,25.50
2017,06,24,15,07,25.50
2017,06,24,15,08,25.60
2017,06,24,15,09,25.70
2017,06,24,15,10,25.70
2017,06,24,15,11,25.70
2017,06,24,15,12,25.70
2017,06,24,15,13,25.70
2017,06,24,15,14,25.70
2017,06,24,15,15,25.70
2017,06,24,15,16,25.60
2017,06,24,15,17,25.60
2017,06,24,15,18,25.60
2017,06,24,15,19,25.60
2017,06,24,15,20,25.60
2017,06,24,15,21,25.60
2017,06,24,15,22,25.60
2017,06,24,15,23,25.60
2017,06,24,15,24,25.60
2017,06,24,15,25,25.60
2017,06,24,15,26,25.70
2017,06,24,15,27,25.70
2017,06,24,15,28,25.80
2017,06,24,15,29,25.80
2017,06,24,15,30,25.80
2017,06,24,15,31,25.80
2017,06,24,15,32,25.80
2017,06,24,15,33,25.80
2017,06,24,15,34,25.80
2017,06,24,15,35,25.80
2017,06,24,15,36,25.80
2017,06,24,15,37,25.80
2017,06,24,15,38,25.90
2017,06,24,15,39,25.90
2017,06,24,15,40,25.90
2017,06,24,15,41,26.00
2017,06,24,15,42,26.00
2017,06,24,15,43,26.00
2017,06,24,15,44,26.00
2017,06,24,15,45,25.90
2017,06,24,15,46,25.80
2017,06,24,15,47,25.80
2017,06,24,15,48,25.70
2017,06,24,15,49,25.70
2017,06,24,15,50,25.70
2017,06,24,15,51,25.70
2017,06,24,15,52,25.70
2017,06,24,15,53,25.70
2017,06,24,15,54,25.70
2017,06,24,15,55,25.70
2017,06,24,15,56,25.80
2017,06,24,15,57,25.80
2017,06,24,15,58,25.90
2017,06,24,15,59,25.90
2017,06,24,16,00,26.00
2017,06,24,16,01,26.00
2017,06,24,16,02,26.00
2017,06,24,16,03,26.00
2017,06,24,16,04,26.10
2017,06,24,16,05,26.00
2017,06,24,16,06,26.00
2017,06,24,16,07,26.00
2017,06,24,16,08,26.00
2017,06,24,16,09,26.00
2017,06,24,16,10,26.00
2017,06,24,16,11,26.10
2017,06,24,16,12,26.10
2017,06,24,16,13,26.10
2017,06,24,16,14,26.20
2017,06,24,16,15,26.20
2017,06,24,16,16,26.20
2017,06,24,16,17,26.20
2017,06,24,16,18,26.10
2017,06,24,16,19,26.00
2017,06,24,16,20,26.00
2017,06,24,16,21,25.90
2017,06,24,16,22,25.90
2017,06,24,16,23,25.90
2017,06,24,16,24,25.90
2017,06,24,16,25,25.90
2017,06,24,16,26,25.90
2017,06,24,16,27,25.80
2017,06,24,16,28,25.90
2017,06,24,16,29,25.90
2017,06,24,16,30,25.90
2017,06,24,16,31,25.90
2017,06,24,16,32,25.90
2017,06,24,16,33,25.90
2017,06,24,16,34,26.00
2017,06,24,16,35,26.00
2017,06,24,16,36,26.10
2017,06,24,16,37,26.10
2017,06,24,16,38,26.20
2017,06,24,16,39,26.20
2017,06,24,16,40,26.30
2017,06,24,16,41,26.30
2017,06,24,16,42,26.40
2017,06,24,16,43,26.50
2017,06,24,16,44,26.60
2017,06,24,16,45,26.60
2017,06,24,16,46,26.60
2017,06,24,16,47,26.60
2017,06,24,16,48,26.60
2017,06,24,16,49,26.60
2017,06,24,16,50,26.60
2017,06,24,16,51,26.60
2017,06,24,16,52,26.60
2017,06,24,16,53,26.60
2017,06,24,16,54,26.70
2017,06,24,16,55,26.70
2017,06,24,16,56,26.70
2017,06,24,16,57,26.60
2017,06,24,16,58,26.60
2017,06,24,16,59,26.60
2017,06,24,17,00,26.50
2017,06,24,17,01,26.50
2017,06,24,17,02,26.50
2017,06,24,17,03,26.50
2017,06,24,17,04,26.50
2017,06,24,17,05,26.60
2017,06,24,17,06,26.60
2017,06,24,17,07,26.60
2017,06,24,17,08,26.60
2017,06,24,17,09,26.60
2017,06,24,17,10,26.70
2017,06,24,17,11,26.70
2017,06,24,17,12,26.70
2017,06,24,17,13,26.80
2017,06,24,17,14,26.80
2017,06,24,17,15,26.70
2017,06,24,17,16,26.70
2017,06,24,17,17,26.70
2017,06,24,17,18,26.70
2017,06,24,17,19,26.70